Regional Weather Roundup
Issued by NWS

Home | Current Version | Previous Version | Graphics & Text | Print | Product List | Glossary Off
Versions: 1 2 3 4 5 6 7 8 9 10 11 12 13 14 15 16 17 18 19 20 21 22 23 24 25 26 27 28 29 30 31 32 33 34 35 36 37 38 39 40 41 42 43 44 45 46 47 48 49 50

556
ASUS43 KDMX 241101
RWRIA

WEATHER ROUNDUP FOR IOWA
NATIONAL WEATHER SERVICE DES MOINES IA
600 AM CDT TUE APR 24 2018

NOTE: "FAIR" INDICATES FEW OR NO CLOUDS BELOW 12,000 FEET WITH NO
SIGNIFICANT WEATHER AND/OR OBSTRUCTIONS TO VISIBILITY.

* - THESE STATIONS ARE NOT NWS STATIONS...THUS NOT UNDER NWS
QUALITY CONTROL.  THEY ALSO DO NOT REPORT WEATHER SUCH
AS PRECIPITATION OR FOG.

IAZ001>003-012>014-020>022-031>034-043>046-241200-
   NORTHWEST IOWA

CITY           SKY/WX    TMP DP  RH WIND       PRES   REMARKS
CARROLL *      MOCLDY    39  36  87 CALM      30.12S
CHEROKEE *     CLEAR     37  37  98 CALM      30.13S
DENISON *      CLEAR     41  39  93 NE5       30.14R
LE MARS *      CLEAR     39  37  93 CALM      30.12S
ORANGE CITY *  CLEAR     46  41  81 E3        30.12S
SHELDON *      MOCLDY    39  39 100 E6        30.10F WCI  35
SIOUX CITY     CLEAR     40  36  86 E5        30.11F
SPENCER        CLEAR     36  33  89 NW3       30.13S
STORM LAKE *   CLEAR     48  39  71 NE5       30.12S
$$

IAZ055>058-069>071-079>083-090>094-241200-
   SOUTHWEST IOWA

CITY           SKY/WX    TMP DP  RH WIND       PRES   REMARKS
ATLANTIC *     CLOUDY    41  39  93 NE6       30.11S
AUDUBON *      CLOUDY    37  34  87 CALM      30.13S
CLARINDA *     CLOUDY    41  32  70 N3        30.13S
COUNCIL BLFS * CLEAR     48  41  76 E5        30.10S
CRESTON *      CLOUDY    48  36  61 NE5       30.12S
HARLAN  *      CLEAR     43  41  93 N5        30.15S
LAMONI         CLEAR     44  30  57 N7        30.10S
RED OAK *      CLOUDY    41  36  81 CALM      30.11S
SHENANDOAH *   CLEAR     37  32  81 CALM      30.11S
$$

IAZ047>049-059>061-072>074-084-241200-
   CENTRAL IOWA

CITY           SKY/WX    TMP DP  RH WIND       PRES   REMARKS
AMES           CLOUDY    43  38  82 NW3       30.12R
ANKENY *       PTCLDY    41  36  81 CALM      30.12S
BOONE *        CLOUDY    48  43  81 N7        30.11S
CHARITON *     CLEAR     43  30  61 N6        30.10S
DES MOINES     MOCLDY    47  36  65 CALM      30.11S
GRINNELL*      CLOUDY    42  31  64 NW3       30.11S
KNOXVILLE *    MOCLDY    41  32  70 NW5       30.09S
MARSHALLTOWN   CLOUDY    42  36  79 CALM      30.10S
NEWTON *       CLOUDY    46  32  57 NE9       30.10S
PELLA *        CLEAR     43  31  61 CALM      30.11S
$$

IAZ004>006-015-016-023>025-035-036-241200-
   NORTH CENTRAL IOWA

CITY           SKY/WX    TMP DP  RH WIND       PRES   REMARKS
ALGONA *       CLEAR     41  37  87 CALM      30.12S
CLARION *      CLOUDY    45  39  81 NE6       30.12S
ESTHERVILLE    CLEAR     39  34  82 N3        30.12S
FORT DODGE *   CLOUDY    41  38  89 CALM      30.12F
MASON CITY     PTCLDY    43  38  82 NW3       30.13S
FOREST CITY *  FAIR      43  43 100 CALM      30.12S
WEBSTER CITY * CLOUDY    45  43  93 N5        30.11S
IOWA FALLS *   FAIR      44  39  83 CALM      30.12S
$$

IAZ007>011-017>019-026>030-037>042-050>054-066-241200-
   NORTHEAST IOWA

CITY           SKY/WX    TMP DP  RH WIND       PRES   REMARKS
CEDAR RAPIDS   FAIR      40  30  67 N8        30.09R WCI  34
CHARLES CITY * CLOUDY    45  39  81 NE3       30.11F
CLINTON *      FAIR      42  33  70 N10       30.09R
DECORAH *      FAIR      41  34  75 CALM      30.10S
DUBUQUE        FAIR      42  33  70 N8        30.09S
MONTICELLO *   FAIR      34  32  93 CALM      30.10R
OELWEIN *      FAIR      41  32  70 N7        30.11S
WATERLOO       FAIR      37  33  85 CALM      30.11S
$$

IAZ064-065-067-068-078-241200-
   EAST CENTRAL IOWA

CITY           SKY/WX    TMP DP  RH WIND       PRES   REMARKS
DAVENPORT      FAIR      43  30  60 N6        30.10R
IOWA CITY      FAIR      41  30  65 CALM      30.11R
MT. PLEASANT * CLEAR     43  34  70 N7        30.08S
MUSCATINE *    FAIR      45  32  61 N3        30.09R
QUAD CITIES    FAIR      47  34  60 CALM      30.07R
$$

IAZ062-063-075>077-085>089-095>099-241200-
   SOUTHEAST IOWA

CITY           SKY/WX    TMP DP  RH WIND       PRES   REMARKS
BURLINGTON     CLEAR     47  40  76 N9        30.07R
FAIRFIELD *    CLEAR     39  28  65 N7        30.08S WCI  34
FORT MADISON * CLEAR     45  41  87 N3        30.08R
KEOKUK *       CLEAR     48  45  87 N7        30.06R
OSKALOOSA *    FAIR      40  28  63 N8        30.10R WCI  34
CENTERVILLE *    N/A     43  30  61 CALM      30.10R
OTTUMWA        CLEAR     40  27  59 N6        30.09R
WASHINGTON *   CLEAR     43  32  65 N5        30.10R
$$

ABBREVIATIONS USED IN REMARKS
   TC - TEMPERATURES IN CELSIUS
  WCI - WIND CHILL INDEX
   HX - HEAT INDEX
  VSB - VISIBILITY
$$





USA.gov is the U.S. government's official web portal to all federal, state and local government web resources and services.